Regional Weather Roundup
Issued by NWS

Home | Current Version | Previous Version | Text Only | Print | Product List | Glossary Off
Versions: 1 2 3 4 5 6 7 8 9 10 11 12 13 14 15 16 17 18 19 20 21 22 23 24 25 26 27 28 29 30 31 32 33 34 35 36 37 38 39 40 41 42 43 44 45 46 47 48 49 50

267
ASUS45 KSLC 060110
RWRUT

UTAH REGIONAL WEATHER ROUNDUP
NATIONAL WEATHER SERVICE SALT LAKE CITY UT
600 PM MST MON DEC 05 2016

UTZ001>011-023>025-060200-

NORTHERN UTAH

CITY           SKY/WX    TMP DP  RH WIND       PRES   REMARKS
BRIGHAM CITY     N/A     27  10  48 CALM      30.04S
HILL AFB       PTCLDY    25  -1  33 E5        30.01S WCI  19
LOGAN            N/A    N/A N/A N/A E7        30.03R
OGDEN          PTCLDY    26   4  38 CALM      30.02S
SALT LAKE CITY MOCLDY    30  10  43 CALM      30.03S
TOOELE VALLEY  CLOUDY    28  14  54 CALM      30.03S
WENDOVER       CLOUDY    28   5  37 E5        30.02S WCI  23
HEBER CITY     CLOUDY    25  -4  28 CALM      29.96S
WEST JORDAN    CLOUDY    28  15  58 CALM      30.02F

$$

UTZ011>015-024>027-060200-

CENTRAL/NORTHEAST UTAH

CITY           SKY/WX    TMP DP  RH WIND       PRES   REMARKS
PROVO AIRPORT  CLOUDY    29  10  45 N7        30.02F WCI  22
MOAB/CANYONLAN PTCLDY    36  11  35 NW14      29.89R WCI  27
DELTA          PTCLDY    27  -4  26 MISG      29.98S
PRICE          PTCLDY    24   4  42 N9        29.91S WCI  14
ROOSEVELT      CLEAR     27  -9  20 W10       29.99R WCI  17
VERNAL         CLEAR     24 -12  20 N6        29.96R WCI  17

$$

UTZ013>016-019>022-027-060200-

SOUTHERN UTAH

CITY           SKY/WX    TMP DP  RH WIND       PRES   REMARKS
BRYCE CANYON   CLOUDY    24  12  60 W7        29.91R WCI  16
CEDAR CITY     CLOUDY    32  15  49 CALM      29.91F
MILFORD        MOCLDY    28   7  41 N12       29.95S WCI  18
ST GEORGE      CLOUDY    48  18  29 CALM      29.90S
HANKSVILLE     PTCLDY    37  14  38 E6        29.91R WCI  33
BLANDING       MOCLDY    35  16  46 NW3       29.93S

$$

REGIONAL REPORTS     COLORADO/ARIZONA

CITY           SKY/WX    TMP DP  RH WIND       PRES   REMARKS
CRAIG, CO      CLOUDY    15  -3  44 SW6       29.95R WCI   6
GRAND JUNCTION CLEAR     33  12  41 W12       29.89R WCI  24
RIFLE, CO      CLOUDY    32   2  27 NW20G36   29.89R WCI  20
MONTROSE, CO   CLOUDY    37  13  37 NW15      29.87R WCI  28
CORTEZ, CO     CLOUDY    35  20  54 CALM      29.86S
COLORADO CITY    N/A     43  18  36 N6        29.93S
PAGE, AZ       CLOUDY    49  13  23 W3        29.85R
GRAND CANYON   CLOUDY    32  22  66 NE3       29.95S
KINGMAN, AZ    MOCLDY    48  11  22 SW9       29.92R
FLAGSTAFF, AZ  MOCLDY    34  16  47 SW9       29.96S WCI  27

$$

REGIONAL REPORTS    NEVADA/IDAHO/WYOMING

CITY           SKY/WX    TMP DP  RH WIND       PRES   REMARKS
LAS VEGAS, NV  CLOUDY    57  18  21 CALM      29.87F
ELY, NY        PTCLDY    28  14  55 W6        29.89S WCI  22
ELKO, NV       PTCLDY    26  11  52 NE5       29.94F WCI  20
POCATELLO, ID  CLEAR     18   9  68 SE5       30.03F WCI  11
BURLEY, ID     PTCLDY    18  13  80 S3        30.02F
FORT BRIDGER,    N/A     11 -12  34 NW3       29.95S
EVANSTON, WY   CLOUDY    12 -19  23 W9        29.92R WCI   0
ROCK SPRINGS,  CLEAR     11  -6  46 W13       29.90S WCI  -4

$$




USA.gov is the U.S. government's official web portal to all federal, state and local government web resources and services.